• In Hungary
  • List of Countries
  • For 7 days
  • Water Temperature
  • Satellite Maps
  • Weather Map
  • News
  • Weather Widgets
  • user-avatar
    Login

    Hourly Weather Managazovo

    Today, 26 September, Wednesday

    Time Temperature Precipitation Wind Pressure Humidity
    00:00 +13°C° 0.1 mm 4 mps 750 mmHg 77%
    01:00 +13°C° 0.1 mm 4 mps 750 mmHg 77%
    02:00 +13°C° 0 mm 4 mps 750 mmHg 74%
    03:00 +13°C° 0 mm 5 mps 750 mmHg 70%
    04:00 +13°C° 0 mm 5 mps 750 mmHg 69%
    05:00 +13°C° 0.1 mm 5 mps 750 mmHg 69%
    06:00 +13°C° 0.1 mm 6 mps 750 mmHg 70%
    07:00 +13°C° 0.1 mm 6 mps 750 mmHg 71%
    08:00 +13°C° 0.1 mm 6 mps 751 mmHg 69%
    09:00 +13°C° 0.1 mm 6 mps 751 mmHg 68%
    10:00 +14°C° 0 mm 6 mps 751 mmHg 66%
    11:00 +14°C° 0.4 mm 6 mps 751 mmHg 69%
    12:00 +13°C° 0.4 mm 6 mps 752 mmHg 73%
    13:00 +13°C° 0.4 mm 6 mps 752 mmHg 76%
    14:00 +12°C° 0.9 mm 5 mps 752 mmHg 80%
    15:00 +12°C° 0.9 mm 5 mps 752 mmHg 84%
    16:00 +10°C° 0.9 mm 5 mps 753 mmHg 88%
    17:00 +11°C° 0.1 mm 4 mps 753 mmHg 89%
    18:00 +11°C° 0.1 mm 4 mps 753 mmHg 91%
    19:00 +11°C° 0.1 mm 3 mps 753 mmHg 92%
    20:00 +10°C° 0.2 mm 3 mps 753 mmHg 92%
    21:00 +10°C° 0.2 mm 3 mps 753 mmHg 92%
    22:00 +10°C° 0.2 mm 2 mps 753 mmHg 91%
    23:00 +10°C° 0.5 mm 2 mps 753 mmHg 92%

    Tomorrow, 27 September, Thursday

    Time Temperature Precipitation Wind Pressure Humidity
    00:00 +9°C° 0.5 mm 2 mps 753 mmHg 93%
    01:00 +9°C° 0.5 mm 2 mps 753 mmHg 93%
    02:00 +9°C° 0.4 mm 2 mps 752 mmHg 93%
    03:00 +8°C° 0.4 mm 2 mps 752 mmHg 93%
    04:00 +8°C° 0.4 mm 2 mps 752 mmHg 94%
    05:00 +8°C° 0.1 mm 2 mps 751 mmHg 92%
    06:00 +8°C° 0.1 mm 2 mps 751 mmHg 91%
    07:00 +8°C° 0.1 mm 2 mps 751 mmHg 90%
    08:00 +8°C° 0 mm 3 mps 751 mmHg 83%
    09:00 +8°C° 0 mm 4 mps 751 mmHg 77%
    10:00 +9°C° 0 mm 5 mps 751 mmHg 71%
    11:00 +9°C° 0 mm 5 mps 750 mmHg 68%
    12:00 +9°C° 0 mm 6 mps 750 mmHg 65%
    13:00 +10°C° 0 mm 6 mps 749 mmHg 62%
    14:00 +10°C° 0 mm 6 mps 749 mmHg 62%
    15:00 +9°C° 0 mm 6 mps 748 mmHg 62%
    16:00 +9°C° 0 mm 6 mps 748 mmHg 61%
    17:00 +8°C° 0 mm 5 mps 747 mmHg 64%
    18:00 +8°C° 0 mm 5 mps 747 mmHg 66%
    19:00 +7°C° 0 mm 5 mps 747 mmHg 68%
    20:00 +7°C° 0 mm 5 mps 746 mmHg 68%
    21:00 +7°C° 0 mm 5 mps 745 mmHg 69%
    22:00 +7°C° 0 mm 6 mps 745 mmHg 69%
    23:00 +5°C° 0.3 mm 6 mps 744 mmHg 72%

    Day after tomorrow, 28 September, Friday

    Time Temperature Precipitation Wind Pressure Humidity
    00:00 +5°C° 0.3 mm 6 mps 743 mmHg 76%
    01:00 +5°C° 0.3 mm 7 mps 742 mmHg 80%
    02:00 +4°C° 0.6 mm 6 mps 742 mmHg 82%
    03:00 +4°C° 0.6 mm 6 mps 741 mmHg 84%
    04:00 +4°C° 0.6 mm 6 mps 741 mmHg 86%
    05:00 +4°C° 0.4 mm 6 mps 741 mmHg 87%
    06:00 +4°C° 0.4 mm 6 mps 741 mmHg 88%
    07:00 +4°C° 0.4 mm 6 mps 741 mmHg 88%
    08:00 +5°C° 0.2 mm 6 mps 742 mmHg 86%
    09:00 +5°C° 0.2 mm 7 mps 742 mmHg 83%
    10:00 +5°C° 0.2 mm 7 mps 743 mmHg 80%
    11:00 +5°C° 0.1 mm 7 mps 744 mmHg 79%
    12:00 +5°C° 0.1 mm 7 mps 744 mmHg 77%
    13:00 +6°C° 0.1 mm 7 mps 745 mmHg 76%
    14:00 +5°C° 0.1 mm 7 mps 745 mmHg 77%
    15:00 +5°C° 0.1 mm 6 mps 745 mmHg 78%
    16:00 +5°C° 0.1 mm 6 mps 746 mmHg 79%
    17:00 +6°C° 0 mm 5 mps 746 mmHg 79%
    18:00 +6°C° 0 mm 5 mps 746 mmHg 80%
    19:00 +6°C° 0 mm 4 mps 746 mmHg 80%
    20:00 +6°C° 0.2 mm 5 mps 745 mmHg 81%
    21:00 +6°C° 0.2 mm 5 mps 745 mmHg 82%
    22:00 +5°C° 0.2 mm 6 mps 745 mmHg 83%
    23:00 +5°C° 1.6 mm 7 mps 744 mmHg 84%

    29 September, Saturday

    Time Temperature Precipitation Wind Pressure Humidity
    00:00 +6°C° 1.6 mm 7 mps 743 mmHg 86%
    01:00 +6°C° 1.6 mm 8 mps 742 mmHg 87%
    02:00 +6°C° 0.9 mm 8 mps 742 mmHg 86%
    03:00 +7°C° 0.9 mm 9 mps 741 mmHg 85%
    04:00 +8°C° 0.9 mm 9 mps 741 mmHg 84%
    05:00 +8°C° 0.7 mm 9 mps 741 mmHg 85%
    06:00 +8°C° 0.7 mm 9 mps 741 mmHg 85%
    07:00 +8°C° 0.7 mm 10 mps 741 mmHg 86%
    08:00 +10°C° 0.3 mm 9 mps 742 mmHg 83%
    09:00 +10°C° 0.3 mm 9 mps 743 mmHg 80%
    10:00 +10°C° 0.3 mm 9 mps 743 mmHg 76%
    11:00 +10°C° 0.1 mm 8 mps 744 mmHg 76%
    12:00 +9°C° 0.1 mm 8 mps 745 mmHg 76%
    13:00 +9°C° 0.1 mm 7 mps 746 mmHg 75%
    14:00 +9°C° 0.1 mm 7 mps 747 mmHg 74%
    15:00 +8°C° 0.1 mm 7 mps 748 mmHg 73%
    16:00 +8°C° 0.1 mm 6 mps 749 mmHg 72%
    17:00 +7°C° 0 mm 6 mps 749 mmHg 73%
    18:00 +7°C° 0 mm 5 mps 750 mmHg 74%
    19:00 +6°C° 0 mm 4 mps 750 mmHg 75%
    20:00 +6°C° 0 mm 4 mps 751 mmHg 76%
    21:00 +5°C° 0 mm 4 mps 751 mmHg 78%
    22:00 +5°C° 0 mm 4 mps 752 mmHg 79%
    23:00 +5°C° 0 mm 3 mps 752 mmHg 80%

    30 September, Sunday

    Time Temperature Precipitation Wind Pressure Humidity
    00:00 +4°C° 0 mm 3 mps 752 mmHg 82%
    01:00 +3°C° 0 mm 3 mps 752 mmHg 83%
    02:00 +3°C° 0 mm 3 mps 752 mmHg 82%
    03:00 +3°C° 0 mm 3 mps 753 mmHg 81%
    04:00 +3°C° 0 mm 3 mps 753 mmHg 80%
    05:00 +3°C° 0 mm 3 mps 753 mmHg 80%
    06:00 +3°C° 0 mm 3 mps 753 mmHg 81%
    07:00 +3°C° 0 mm 3 mps 753 mmHg 81%
    08:00 +4°C° 0 mm 3 mps 753 mmHg 78%
    09:00 +5°C° 0 mm 3 mps 753 mmHg 74%
    10:00 +5°C° 0 mm 3 mps 753 mmHg 71%
    11:00 +7°C° 0 mm 3 mps 753 mmHg 69%
    12:00 +7°C° 0 mm 3 mps 753 mmHg 67%
    13:00 +8°C° 0 mm 3 mps 753 mmHg 65%
    14:00 +8°C° 0.1 mm 3 mps 753 mmHg 66%
    15:00 +8°C° 0.1 mm 3 mps 753 mmHg 67%
    16:00 +8°C° 0.1 mm 3 mps 753 mmHg 68%
    17:00 +7°C° 0.1 mm 2 mps 753 mmHg 72%
    18:00 +6°C° 0.1 mm 2 mps 753 mmHg 77%
    19:00 +5°C° 0.1 mm 2 mps 753 mmHg 81%
    20:00 +5°C° 0 mm 2 mps 753 mmHg 83%
    21:00 +5°C° 0 mm 2 mps 753 mmHg 84%
    22:00 +5°C° 0 mm 2 mps 753 mmHg 85%
    23:00 +5°C° 0.1 mm 2 mps 753 mmHg 87%

    1 October, Monday

    Time Temperature Precipitation Wind Pressure Humidity
    00:00 +4°C° 0.1 mm 2 mps 753 mmHg 88%
    01:00 +4°C° 0.1 mm 2 mps 753 mmHg 89%
    02:00 +3°C° 0.1 mm 3 mps 753 mmHg 90%
    03:00 +3°C° 0.1 mm 3 mps 753 mmHg 91%
    04:00 +3°C° 0.1 mm 3 mps 753 mmHg 92%
    05:00 +3°C° 0 mm 3 mps 754 mmHg 92%
    06:00 +3°C° 0 mm 3 mps 754 mmHg 91%
    07:00 +3°C° 0 mm 3 mps 754 mmHg 91%
    08:00 +3°C° 0 mm 4 mps 754 mmHg 87%
    09:00 +3°C° 0 mm 4 mps 754 mmHg 83%
    10:00 +4°C° 0 mm 4 mps 755 mmHg 80%
    11:00 +4°C° 0 mm 4 mps 755 mmHg 74%
    12:00 +5°C° 0 mm 4 mps 755 mmHg 69%
    13:00 +6°C° 0 mm 4 mps 755 mmHg 63%
    14:00 +6°C° 0 mm 4 mps 755 mmHg 61%
    15:00 +6°C° 0 mm 4 mps 755 mmHg 60%
    16:00 +6°C° 0 mm 4 mps 755 mmHg 58%
    17:00 +7°C° 0 mm 3 mps 755 mmHg 63%
    18:00 +5°C° 0 mm 3 mps 755 mmHg 68%
    19:00 +4°C° 0 mm 3 mps 755 mmHg 73%
    20:00 +4°C° 0 mm 3 mps 756 mmHg 74%
    21:00 +4°C° 0 mm 4 mps 756 mmHg 74%
    22:00 +5°C° 0 mm 4 mps 756 mmHg 75%
    23:00 +5°C° 0 mm 4 mps 756 mmHg 79%
    Show more